Terminal Aerodrome Forecast
Issued by NWS

Home | Current Version | Previous Version | Graphics & Text | Print | Product List | Glossary On
Versions: 1 2 3 4 5 6 7 8 9 10 11 12 13 14 15 16 17 18 19 20 21 22 23 24 25
292
FTUS43 KGRB 261831 AAA
TAFMTW
TAF AMD
KMTW 261831Z 2619/2718 18014G22KT P6SM SCT040
     FM262000 17008G15KT P6SM SCT035
     FM270400 15004KT 3SM BR SCT008 BKN250
      TEMPO 2708/2712 1/2SM FG BKN002
     FM271500 15008KT 5SM -SHRA BR BKN025 OVC060=

USA.gov is the U.S. government's official web portal to all federal, state and local government web resources and services.